Regional Weather Roundup
Issued by NWS

Home | Current Version | Previous Version | Text Only | Print | Product List | Glossary On
Versions: 1 2 3 4 5 6 7 8 9 10 11 12 13 14 15 16 17 18 19 20 21 22 23 24 25 26 27 28
000
ASUS44 KBMX 070110
RWRAL

ALABAMA REGIONAL WEATHER ROUNDUP
NATIONAL WEATHER SERVICE BIRMINGHAM AL
800 PM CDT FRI MAY 06 2016

NOTE: "FAIR" INDICATES FEW OR NO CLOUDS BELOW 12,000 FEET
WITH NO SIGNIFICANT WEATHER AND/OR OBSTRUCTIONS TO VISIBILITY.

THE REMARK "TC" DENOTES TEMPERATURE IN DEGREES CELSIUS.

ALZ001>011-014-016>018-020-070200-
NORTH ALABAMA

CITY           SKY/WX    TMP DP  RH WIND       PRES   REMARKS
MUSCLE SHOALS  CLEAR     66  42  41 NW5       29.99S
HUNTSVILLE     PTCLDY    64  43  46 NW5       29.97R
DECATUR        CLEAR     62  44  51 NW5       29.98R
HALEYVILLE     FAIR      59  46  62 CALM      30.01R
GADSDEN        CLEAR     62  44  51 W5        29.96S
$$

ALZ012-013-022-023-030>036-040>044-070200-
WEST CENTRAL ALABAMA

CITY           SKY/WX    TMP DP  RH WIND       PRES   REMARKS
TUSCALOOSA     CLEAR     66  44  45 NW3       29.98R
$$

ALZ015-024>027-033>036-040>044-070200-
CENTRAL ALABAMA

CITY           SKY/WX    TMP DP  RH WIND       PRES   REMARKS
BIRMINGHAM     CLEAR     61  48  62 N5        29.99S
MONTGOMERY     CLEAR     67  43  41 CALM      29.96R
SHELBY CO ARPT CLEAR     61  48  62 CALM      29.97R
MAXWELL AFB    CLEAR     65  48  54 W2        29.95R
GREENVILLE     FAIR      66  45  46 N3        29.96R
$$

ALZ019-021-028-029-037-038-045>048-070200-
EAST CENTRAL ALABAMA

CITY           SKY/WX    TMP DP  RH WIND       PRES   REMARKS
ANNISTON       CLEAR     67  40  37 NW3       29.96R
ALEXANDER CITY CLEAR     65  50  57 NW3       29.96S
AUBURN         CLEAR     63  44  50 NW6       29.96R
$$

ALZ051>064-070200-
SOUTHWEST ALABAMA

CITY           SKY/WX    TMP DP  RH WIND       PRES   REMARKS
MOBILE         CLEAR     66  49  54 N5        29.99R
BROOKLEY FIELD CLEAR     67  48  50 NW5       29.99R
EVERGREEN      CLEAR     62  49  62 CALM      29.97R
$$

ALZ049-050-065>069-070200-
SOUTHEAST ALABAMA

CITY           SKY/WX    TMP DP  RH WIND       PRES   REMARKS
DOTHAN         CLEAR     66  42  41 NW6       29.97R
OZARK          CLEAR     66  44  44 NW5       29.94R
TROY           CLEAR     64  46  52 NW3       29.96R
EUFAULA        FAIR      60  48  64 CALM      29.93R
$$




USA.gov is the U.S. government's official web portal to all federal, state and local government web resources and services.